Weather History for KTIF - February, 2013

Change the Weather History Date:

Tuesday, February 5, 2013

  Actual Average (KLBF) Record (KLBF)
Temperature  
Mean Temperature 41 °F 27 °F  
Max Temperature 52 °F 41 °F 69 °F (1904)
Min Temperature 30 °F 13 °F -27 °F (1905)
Degree Days  
Heating Degree Days 24 38  
Month to date heating degree days 193  
Since 1 July heating degree days 4213  
Cooling Degree Days 0 0  
Month to date cooling degree days 0  
Year to date cooling degree days 0  
Moisture  
Dew Point 22 °F    
Average Humidity 50    
Maximum Humidity 73    
Minimum Humidity 27    
Precipitation  
Precipitation 0.00 in 0.01 in 0.53 in (1881)
Month to date precipitation 0.06  
Year to date precipitation 0.40  
Snow  
Snow 0.00 in 0.20 in 4.00 in (1986)
Month to date snowfall 0.9  
Since 1 July snowfall 16.5  
Snow Depth -    
Sea Level Pressure  
Sea Level Pressure 29.93 in    
Wind  
Wind Speed 8 mph (West)    
Max Wind Speed 17 mph    
Max Gust Speed 22 mph    
Visibility 10 miles    
Events      
T = Trace of Precipitation, MM = Missing Value Source: NWS Daily Summary

Daily Weather History Graph

Daily Weather History Graph

Search for Another Location

Airport or City:

Trip Planner

Search our weather history database for the weather conditions in past years. The results will help you decide how hot, cold, wet, or windy it might be!

Date:

Astronomy

Feb. 05, 2013 Rise Set
Actual Time 7:50 AM CST 6:02 PM CST
Civil Twilight 7:21 AM CST 6:32 PM CST
Nautical Twilight 6:47 AM CST 7:05 PM CST
Astronomical Twilight 6:15 AM CST 7:37 PM CST
Moon 3:35 AM CST (2/5) 1:20 PM CST (2/5)
Length of Visible Light 11h 11m
Length of Day
10h 12m
Waning Crescent, 26% of the Moon is Illuminated
Feb 5
Waning Crescent
Feb 10
New
Feb 17
First Quarter
Feb 25
Full
Mar 4
Last Quarter

Hourly Weather History & Observations

Time (CST) Temp. Windchill Dew Point Humidity Pressure Visibility Wind Dir Wind Speed Gust Speed Precip Events Conditions
12:15 AM 33.6 °F 28.4 °F 24.1 °F 68% 29.84 in 10.0 mi WNW 5.8 mph - N/A   Scattered Clouds
12:35 AM 34.3 °F 26.5 °F 24.1 °F 66% 29.84 in 10.0 mi West 10.4 mph - N/A   Scattered Clouds
12:55 AM 33.3 °F 25.1 °F 23.9 °F 69% 29.84 in 10.0 mi West 10.4 mph - N/A   Clear
1:15 AM 33.4 °F 28.1 °F 23.9 °F 68% 29.84 in 10.0 mi West 5.8 mph - N/A   Clear
1:35 AM 32.5 °F 27.1 °F 23.7 °F 70% 29.84 in 10.0 mi West 5.8 mph - N/A   Clear
1:55 AM 33.6 °F 27.5 °F 23.9 °F 68% 29.84 in 10.0 mi WNW 6.9 mph - N/A   Clear
2:15 AM 32.2 °F 26.7 °F 23.9 °F 72% 29.85 in 10.0 mi West 5.8 mph - N/A   Clear
2:35 AM 32.2 °F 25.0 °F 23.7 °F 71% 29.85 in 10.0 mi West 8.1 mph - N/A   Clear
2:55 AM 35.8 °F 28.8 °F 24.4 °F 63% 29.86 in 10.0 mi West 9.2 mph - N/A   Mostly Cloudy
3:15 AM 34.7 °F 28.8 °F 23.7 °F 64% 29.86 in 10.0 mi West 6.9 mph - N/A   Mostly Cloudy
3:35 AM 32.7 °F 27.3 °F 23.2 °F 68% 29.85 in 10.0 mi WSW 5.8 mph - N/A   Scattered Clouds
3:55 AM 32.0 °F 25.6 °F 23.0 °F 69% 29.86 in 10.0 mi West 6.9 mph - N/A   Scattered Clouds
4:15 AM 30.9 °F 25.2 °F 22.8 °F 72% 29.86 in 10.0 mi WNW 5.8 mph - N/A   Scattered Clouds
4:35 AM 31.6 °F 23.7 °F 23.7 °F 73% 29.87 in 10.0 mi WNW 9.2 mph - N/A   Mostly Cloudy
4:55 AM 31.8 °F 23.3 °F 23.7 °F 72% 29.87 in 10.0 mi West 10.4 mph - N/A   Scattered Clouds
5:15 AM 32.0 °F 23.6 °F 23.9 °F 72% 29.89 in 10.0 mi West 10.4 mph - N/A   Clear
5:35 AM 32.0 °F 23.6 °F 23.7 °F 71% 29.90 in 10.0 mi West 10.4 mph - N/A   Clear
5:55 AM 32.4 °F 23.5 °F 23.7 °F 70% 29.89 in 10.0 mi West 11.5 mph - N/A   Clear
6:15 AM 32.5 °F 25.5 °F 23.7 °F 70% 29.90 in 10.0 mi WNW 8.1 mph - N/A   Clear
6:35 AM 32.2 °F 23.8 °F 23.5 °F 70% 29.91 in 10.0 mi WNW 10.4 mph - N/A   Clear
6:55 AM 32.0 °F 23.6 °F 23.7 °F 71% 29.92 in 10.0 mi West 10.4 mph - N/A   Clear
7:15 AM 32.5 °F 24.8 °F 23.9 °F 70% 29.93 in 10.0 mi WNW 9.2 mph - N/A   Scattered Clouds
7:35 AM 32.0 °F 24.2 °F 23.9 °F 72% 29.94 in 10.0 mi West 9.2 mph - N/A   Mostly Cloudy
7:55 AM 32.7 °F 26.4 °F 24.1 °F 71% 29.95 in 10.0 mi WNW 6.9 mph - N/A   Overcast
8:15 AM - - - N/A% - - North - - N/A   Unknown
8:35 AM 32.4 °F 25.3 °F 21.4 °F 64% 29.97 in 10.0 mi West 8.1 mph - N/A   Clear
8:55 AM 34.5 °F 27.3 °F 24.4 °F 67% 29.98 in 10.0 mi West 9.2 mph - N/A   Scattered Clouds
9:15 AM 37.6 °F 30.0 °F 25.3 °F 61% 30.00 in 10.0 mi West 11.5 mph - N/A   Scattered Clouds
9:35 AM 41.4 °F 35.7 °F 26.2 °F 55% 30.00 in 10.0 mi NW 9.2 mph - N/A   Clear
9:55 AM 43.3 °F 37.2 °F 26.2 °F 51% 30.01 in 10.0 mi NNW 11.5 mph 17.3 mph N/A   Mostly Cloudy
10:15 AM 43.7 °F 37.7 °F 25.7 °F 49% 30.01 in 10.0 mi NNW 11.5 mph 18.4 mph N/A   Overcast
10:35 AM 45.3 °F 39.3 °F 25.0 °F 45% 30.01 in 10.0 mi NNW 12.7 mph 18.4 mph N/A   Mostly Cloudy
10:55 AM 45.5 °F 38.9 °F 23.4 °F 42% 30.02 in 10.0 mi NNW 15.0 mph - N/A   Clear
11:15 AM 45.7 °F 40.2 °F 23.4 °F 41% 30.02 in 10.0 mi NNW 11.5 mph - N/A   Clear
11:35 AM 47.1 °F - 23.2 °F 39% 30.03 in 10.0 mi NNW 10.4 mph - N/A   Clear
11:55 AM 47.5 °F - 22.1 °F 37% 30.03 in 10.0 mi NNW 13.8 mph - N/A   Clear
12:15 PM 48.0 °F - 22.8 °F 37% 30.03 in 10.0 mi NNW 8.1 mph - N/A   Clear
12:35 PM 48.6 °F - 21.9 °F 35% 30.02 in 10.0 mi NNW 6.9 mph - N/A   Clear
12:55 PM 48.9 °F - 21.0 °F 33% 30.01 in 10.0 mi NW 11.5 mph 16.1 mph N/A   Clear
1:15 PM 49.6 °F - 21.2 °F 33% 30.01 in 10.0 mi NW 8.1 mph - N/A   Clear
1:35 PM 50.5 °F - 20.3 °F 30% 29.99 in 10.0 mi NW 9.2 mph - N/A   Clear
1:55 PM 50.4 °F - 19.8 °F 30% 29.99 in 10.0 mi West 3.5 mph - N/A   Clear
2:15 PM 51.3 °F - 19.6 °F 29% 29.98 in 10.0 mi NW 9.2 mph - N/A   Clear
2:35 PM 52.0 °F - 19.4 °F 28% 29.97 in 10.0 mi West 6.9 mph - N/A   Clear
2:55 PM 51.8 °F - 19.2 °F 28% 29.96 in 10.0 mi West 8.1 mph - N/A   Clear
3:15 PM 52.0 °F - 19.0 °F 27% 29.96 in 10.0 mi WSW 6.9 mph - N/A   Clear
3:35 PM 51.8 °F - 18.9 °F 27% 29.95 in 10.0 mi Calm Calm - N/A   Clear
3:55 PM 52.2 °F - 18.7 °F 27% 29.95 in 10.0 mi WSW 3.5 mph - N/A   Clear
4:15 PM 51.8 °F - 18.5 °F 27% 29.95 in 10.0 mi Calm Calm - N/A   Clear
4:35 PM 51.6 °F - 18.7 °F 27% 29.94 in 10.0 mi Calm Calm - N/A   Clear
4:55 PM 50.9 °F - 18.5 °F 28% 29.94 in 10.0 mi Calm Calm - N/A   Clear
5:15 PM 50.2 °F - 19.4 °F 30% 29.93 in 10.0 mi Calm Calm - N/A   Scattered Clouds
5:35 PM 47.8 °F - 20.5 °F 34% 29.94 in 10.0 mi Calm Calm - N/A   Scattered Clouds
5:55 PM 45.7 °F 44.4 °F 21.2 °F 38% 29.94 in 10.0 mi SE 3.5 mph - N/A   Scattered Clouds
6:15 PM 43.2 °F 41.5 °F 22.1 °F 43% 29.94 in 10.0 mi SE 3.5 mph - N/A   Scattered Clouds
6:35 PM 43.3 °F 39.9 °F 22.5 °F 44% 29.94 in 10.0 mi SSE 5.8 mph - N/A   Overcast
6:55 PM 42.3 °F 37.9 °F 22.1 °F 45% 29.94 in 10.0 mi SE 6.9 mph - N/A   Overcast
7:15 PM 40.5 °F 35.8 °F 22.3 °F 48% 29.94 in 10.0 mi SE 6.9 mph - N/A   Overcast
7:35 PM 41.7 °F 37.3 °F 22.5 °F 46% 29.94 in 10.0 mi SSE 6.9 mph - N/A   Overcast
7:55 PM 41.2 °F 36.6 °F 22.6 °F 48% 29.94 in 10.0 mi SE 6.9 mph - N/A   Overcast
8:15 PM 41.5 °F 35.9 °F 22.3 °F 46% 29.93 in 10.0 mi SSE 9.2 mph - N/A   Overcast
8:35 PM 41.7 °F 36.1 °F 21.7 °F 45% 29.93 in 10.0 mi SSE 9.2 mph - N/A   Overcast
8:55 PM 42.6 °F 36.8 °F 21.2 °F 43% 29.92 in 10.0 mi South 10.4 mph - N/A   Overcast
9:15 PM 42.8 °F 36.2 °F 20.7 °F 41% 29.91 in 10.0 mi South 12.7 mph - N/A   Scattered Clouds
9:35 PM 43.7 °F 36.3 °F 20.5 °F 40% 29.90 in 10.0 mi South 16.1 mph - N/A   Scattered Clouds
9:55 PM 43.2 °F 35.3 °F 20.3 °F 40% 29.90 in 10.0 mi South 17.3 mph 21.9 mph N/A   Scattered Clouds
10:15 PM 43.3 °F 36.5 °F 20.1 °F 40% 29.90 in 10.0 mi SSE 13.8 mph - N/A   Scattered Clouds
10:35 PM 43.0 °F 36.8 °F 19.8 °F 40% 29.90 in 10.0 mi South 11.5 mph - N/A   Scattered Clouds
10:55 PM 42.4 °F 36.1 °F 19.8 °F 40% 29.90 in 10.0 mi SSE 11.5 mph - N/A   Mostly Cloudy
11:15 PM 41.2 °F 36.0 °F 19.9 °F 43% 29.90 in 10.0 mi SSE 8.1 mph - N/A   Scattered Clouds
11:35 PM 39.6 °F 34.7 °F 20.3 °F 46% 29.89 in 10.0 mi SSE 6.9 mph - N/A   Clear
11:55 PM 39.4 °F 32.7 °F 20.8 °F 47% 29.89 in 10.0 mi South 10.4 mph - N/A   Clear